TITAN 3C TRANSTAGE DEB, 1964

Orbit data source: Space-Track

TITAN 3C TRANSTAGE DEB, 1964 is space debris in LEO originally from a launch on Fri, 15 Oct 1965 UTC launched from the Air Force Eastern Test Range (AFETR). Debris objects in space refer to the collection of defunct objects orbiting the Earth. Examples of debris include non-operational satellites, rocket bodies, and fragments generated from explosions, collisions, or faulty payload assembly.

Loading next visibility...
Identifier
1964, 1965-082GZ
Orbit
LEO
Country
Flag of USUS
Related business
Manufacturer
Unknown
Mission
Spacecraft
Bus & Motor
Unknown
Mass
Unknown
Launch date (UTC)
1965-10-15 (60 years ago)
Launch vehicle
Unknown
Launch site
Air Force Eastern Test Range (AFETR)
Object type
Payload
Rocket body
Debris
Shape & HBR
Unknown shape, 0.1 m
Radar Cross Section
Small (<0.1 m²)

Expand to show TLE details & history
Last TLE update: 14 hours ago

TLE from 14 hours ago
0 TITAN 3C TRANSTAGE DEB
1 01964U 65082GZ  25340.78434827  .00001433  00000-0  49493-3 0  9991
2 01964  32.1969 139.0783 0176211  18.8977 341.8099 14.25823093 90168
Epoch: 2025-12-06T18:49Z
TLE epoch observation values (Epoch: 2025-12-06T18:49:27.690Z)
Latitude
-0.00003°
Longitude
140.90576°
Altitude
684.395 km
Speed
7.579 km/s
True Right ascension
09h 16m 18s
True Declination
0° 00' 00"
Sunlit
Object was in daylight at epoch
Visualization orbit readout
Latitude
Unknown
Longitude
Unknown
Altitude
Unknown
Speed
Unknown
Apparent Right ascension
Unknown
Apparent Declination
Unknown
Sunlit
N/A
Visualization observer readout
Local Sidereal Time
07:21:55
Azimuth
Unknown
Elevation
Unknown
Doppler factor
Unknown
Orbital elements
Apogee altitude
935.903 km
Perigee altitude
682.604 km
Semi-major axis
7,187.391 km
Eccentricity
0.01762
Inclination
32.1969°
RAAN
139.0783°
Arg. of periapsis
18.8977°
True anomaly
341.16611°
Mean anomaly
341.8099°
Eccentric anomaly
341.48937°
Mean motion
3.56194 °/min
Orbital period
101.07 mins
BSTAR
0.00049493

Documentation

Showing up to 5 results
|